Date String (YYYY-MM-DD hh:mm:ss) UTC,Instrument flags,Ambient pressure (hPa),Sample flow (lpm),Bypass flow (lpm),Sample temperature (°C),Ambient temperature (°C),ASC tube jacket temperature (°C),LED temperature (°C),Box temperature (°C),Sample RH (%),Span deviation,Mass concentration (μg/m³),Mass concentration (μg/m³),Mass concentration (μg/m³)
DateTimeUTC,F1_M11,P_M11,Q1_M11,Q2_M11,T1_M11,T2_M11,T3_M11,T4_M11,T5_M11,U1_M11,ZSPAN_M11,X0_M11,X2_M11,X1_M11
2021-11-23 15:00:00,,0820.6,5.00,0.00,25.2,24.4,00.0,34.1,27.1,06.1,0000.0,0007.71,0003.63,0003.22
2021-11-23 15:01:00,,0820.7,5.00,0.00,25.2,24.5,00.0,34.1,27.1,05.9,0000.0,0005.88,0003.34,0002.86
2021-11-23 15:02:00,,0820.6,5.00,0.00,25.2,24.5,00.0,34.1,27.1,05.9,0000.0,0004.90,0003.08,0002.49
2021-11-23 15:03:00,,0820.7,4.99,0.00,25.3,24.5,00.0,34.1,27.1,05.9,0000.0,0004.24,0002.74,0002.19
2021-11-23 15:04:00,,0820.7,5.01,0.00,25.3,24.5,00.0,34.1,27.1,06.1,0000.0,0004.06,0002.54,0001.96
2021-11-23 15:05:00,,0820.8,5.01,0.00,25.3,24.5,00.0,34.2,27.1,06.5,0000.0,0003.96,0002.39,0001.79
2021-11-23 15:06:00,,0820.8,5.01,0.00,25.3,24.4,00.0,34.2,27.1,06.5,0000.0,0004.24,0002.25,0001.65
2021-11-23 15:07:00,,0820.8,5.01,0.00,25.3,24.4,00.0,34.2,27.1,06.4,0000.0,0005.36,0002.14,0001.51
2021-11-23 15:08:00,,0820.7,4.98,0.00,25.3,24.4,00.0,34.2,27.1,06.2,0000.0,0005.02,0001.96,0001.37
2021-11-23 15:09:00,,0820.7,5.00,0.00,25.3,24.4,00.0,34.2,27.1,06.1,0000.0,0004.80,0001.79,0001.22
2021-11-23 15:10:00,,0820.6,5.01,0.00,25.4,24.4,00.0,34.2,27.2,05.4,0000.0,0004.47,0001.60,0001.08
2021-11-23 15:11:00,,0820.6,4.99,0.00,25.4,24.5,00.0,34.3,27.2,05.2,0000.0,0004.36,0001.53,0001.02
2021-11-23 15:12:00,,0820.5,5.01,0.00,25.4,24.5,00.0,34.3,27.3,05.1,0000.0,0004.18,0001.47,0000.99
2021-11-23 15:13:00,,0820.5,5.01,0.00,25.4,24.6,00.0,34.3,27.3,05.1,0000.0,0004.12,0001.43,0000.96
2021-11-23 15:14:00,,0820.6,4.99,0.00,25.5,24.6,00.0,34.3,27.3,05.3,0000.0,0004.31,0001.42,0000.93
2021-11-23 15:15:00,,0820.6,5.00,0.00,25.5,24.6,00.0,34.3,27.4,05.8,0000.0,0004.24,0001.34,0000.90
2021-11-23 15:16:00,,0820.6,5.01,0.00,25.5,24.7,00.0,34.3,27.4,05.7,0000.0,0004.09,0001.23,0000.83
2021-11-23 15:17:00,,0820.6,5.00,0.00,25.5,24.7,00.0,34.4,27.4,05.2,0000.0,0003.61,0001.09,0000.71
2021-11-23 15:18:00,,0820.6,5.00,0.00,25.5,24.7,00.0,34.4,27.4,05.2,0000.0,0001.99,0000.89,0000.61
2021-11-23 15:19:00,,0820.6,5.00,0.00,25.6,24.7,00.0,34.4,27.4,05.4,0000.0,0001.64,0000.77,0000.52
2021-11-23 15:20:00,,0820.6,5.00,0.00,25.6,24.7,00.0,34.4,27.4,05.6,0000.0,0001.39,0000.65,0000.45
2021-11-23 15:21:00,,0820.6,5.02,0.00,25.6,24.7,00.0,34.4,27.5,05.1,0000.0,0001.24,0000.59,0000.42
2021-11-23 15:22:00,,0820.7,4.99,0.00,25.6,24.7,00.0,34.5,27.5,05.5,0000.0,0001.21,0000.58,0000.41
2021-11-23 15:23:00,,0820.6,4.99,0.00,25.6,24.8,00.0,34.5,27.5,06.0,0000.0,0001.42,0000.64,0000.43
2021-11-23 15:24:00,,0820.6,5.01,0.00,25.7,24.8,00.0,34.5,27.5,05.9,0000.0,0001.50,0000.68,0000.45
2021-11-23 15:25:00,,0820.6,4.99,0.00,25.7,24.9,00.0,34.5,27.5,05.8,0000.0,0001.28,0000.66,0000.47
2021-11-23 15:26:00,,0820.6,5.01,0.00,25.7,24.9,00.0,34.5,27.6,05.7,0000.0,0001.20,0000.65,0000.46
2021-11-23 15:27:00,,0820.5,5.00,0.00,25.7,24.9,00.0,34.6,27.6,05.8,0000.0,0001.07,0000.62,0000.44
2021-11-23 15:28:00,,0820.4,4.99,0.00,25.7,24.9,00.0,34.6,27.6,05.7,0000.0,0001.06,0000.61,0000.45
2021-11-23 15:29:00,,0820.4,5.00,0.00,25.8,25.0,00.0,34.6,27.6,05.9,0000.0,0001.26,0000.70,0000.47
2021-11-23 15:30:00,,0820.4,5.00,0.00,25.8,25.0,00.0,34.6,27.6,05.6,0000.0,0001.27,0000.71,0000.49
2021-11-23 15:31:00,,0820.3,5.00,0.00,25.8,25.0,00.0,34.6,27.7,05.4,0000.0,0001.23,0000.69,0000.48
2021-11-23 15:32:00,,0820.3,5.00,0.00,25.8,25.0,00.0,34.7,27.7,05.6,0000.0,0001.24,0000.71,0000.49
2021-11-23 15:33:00,,0820.3,5.02,0.00,25.9,25.1,00.0,34.7,27.8,05.6,0000.0,0001.29,0000.73,0000.51
2021-11-23 15:34:00,,0820.3,5.01,0.00,25.9,25.1,00.0,34.7,27.8,05.6,0000.0,0001.12,0000.69,0000.51
2021-11-23 15:35:00,,0820.3,4.99,0.00,25.9,25.1,00.0,34.7,27.8,06.4,0000.0,0001.07,0000.69,0000.52
2021-11-23 15:36:00,,0820.3,5.00,0.00,25.9,25.2,00.0,34.7,27.8,06.3,0000.0,0001.24,0000.77,0000.56
2021-11-23 15:37:00,,0820.3,5.00,0.00,26.0,25.2,00.0,34.8,27.9,06.3,0000.0,0001.41,0000.88,0000.59
2021-11-23 15:38:00,,0820.3,5.00,0.00,26.0,25.2,00.0,34.8,27.9,06.4,0000.0,0001.47,0000.92,0000.62
2021-11-23 15:39:00,,0820.4,4.99,0.00,26.0,25.2,00.0,34.8,27.9,07.3,0000.0,0001.56,0001.01,0000.69
2021-11-23 15:40:00,,0820.3,5.01,0.00,26.0,25.3,00.0,34.8,27.9,07.7,0000.0,0001.67,0001.13,0000.83
2021-11-23 15:41:00,,0820.2,5.00,0.00,26.0,25.3,00.0,34.9,27.9,07.5,0000.0,0002.26,0001.29,0000.99
2021-11-23 15:42:00,,0820.1,4.98,0.00,26.1,25.3,00.0,34.9,27.9,06.9,0000.0,0002.81,0001.46,0001.10
2021-11-23 15:43:00,,0820.0,5.01,0.00,26.1,25.3,00.0,34.9,28.0,06.2,0000.0,0002.97,0001.54,0001.15
2021-11-23 15:44:00,,0820.0,5.00,0.00,26.1,25.3,00.0,34.9,28.0,05.1,0000.0,0002.99,0001.54,0001.16
2021-11-23 15:45:00,,0820.0,5.01,0.00,26.1,25.4,00.0,34.9,28.0,04.9,0000.0,0002.98,0001.54,0001.15
2021-11-23 15:46:00,,0820.1,5.00,0.00,26.1,25.4,00.0,35.0,28.0,05.0,0000.0,0003.02,0001.54,0001.13
2021-11-23 15:47:00,,0819.9,5.00,0.00,26.2,25.4,00.0,35.0,28.1,04.2,0000.0,0005.49,0001.50,0001.09
2021-11-23 15:48:00,,0820.0,4.99,0.00,26.2,25.4,00.0,35.0,28.1,04.2,0000.0,0007.30,0001.38,0001.04
2021-11-23 15:49:00,,0820.1,5.00,0.00,26.2,25.4,00.0,35.0,28.1,04.4,0000.0,0007.30,0001.33,0001.01
2021-11-23 15:50:00,,0820.2,4.99,0.00,26.2,25.4,00.0,35.1,28.1,04.6,0000.0,0007.22,0001.26,0000.96
2021-11-23 15:51:00,,0820.2,5.01,0.00,26.2,25.5,00.0,35.1,28.1,06.0,0000.0,0007.35,0001.13,0000.86
2021-11-23 15:52:00,,0820.1,5.00,0.00,26.3,25.5,00.0,35.1,28.1,07.2,0000.0,0007.14,0001.12,0000.80
2021-11-23 15:53:00,,0820.2,5.01,0.00,26.3,25.5,00.0,35.1,28.2,07.1,0000.0,0006.97,0001.14,0000.80
2021-11-23 15:54:00,,0820.1,4.99,0.00,26.3,25.5,00.0,35.1,28.2,05.3,0000.0,0007.42,0001.22,0000.80
2021-11-23 15:55:00,,0819.9,5.01,0.00,26.3,25.5,00.0,35.1,28.1,03.8,0000.0,0008.18,0001.36,0000.80
2021-11-23 15:56:00,,0819.9,5.00,0.00,26.3,25.5,00.0,35.2,28.1,03.3,0000.0,0009.98,0001.53,0000.82
2021-11-23 15:57:00,,0819.8,5.00,0.00,26.3,25.4,00.0,35.2,28.1,03.3,0000.0,0010.69,0001.67,0000.82
2021-11-23 15:58:00,,0819.8,5.00,0.00,26.3,25.4,00.0,35.2,28.1,03.2,0000.0,0009.64,0001.78,0000.83
2021-11-23 15:59:00,,0819.9,5.00,0.00,26.3,25.4,00.0,35.2,28.1,03.1,0000.0,0010.25,0001.88,0000.85
